FENGYUN 1C DEB, 31339

Orbit data source: Space-Track

FENGYUN 1C DEB, 31339 is space debris in SSO originally from a launch on Mon, 10 May 1999 UTC launched from the Taiyaun Space Center, China (TSC). Fengyun 1C debris stems from the Chinese weather satellite Fengyun-1C, which was intentionally destroyed by a Chinese anti-satellite missile in 2007. This event dramatically increased the amount of space debris, with thousands of trackable fragments posing hazards to satellites and human spaceflight. The Fengyun 1C debris cloud has become a focal point in discussions about space sustainability and the need for international regulations to prevent the creation of new debris.

Loading next visibility...
Identifier
31339, 1999-025BQT
Orbit
SSO
Country
Flag of CNCN / PRC
Related business
Manufacturer
Unknown
Mission
Spacecraft
Bus & Motor
Unknown
Mass
Unknown
Launch date (UTC)
1999-05-10 (26 years ago)
Launch vehicle
Unknown
Launch site
Taiyaun Space Center, China (TSC)
Object type
Payload
Rocket body
Debris
Shape & HBR
Unknown shape, 0.1 m
Radar Cross Section
Small (<0.1 m²)

Expand to show TLE details & history
Last TLE update: 15 hours ago

TLE from 15 hours ago
0 FENGYUN 1C DEB
1 31339U 99025BQT 25302.98167142  .00002252  00000-0  12203-2 0  9995
2 31339  98.7183 320.8657 0076093  89.7149 271.2742 14.11951523950608
Epoch: 2025-10-29T23:33Z
TLE epoch observation values (Epoch: 2025-10-29T23:33:36.410Z)
Latitude
-0.00005°
Longitude
-71.08301°
Altitude
854.8 km
Speed
7.426 km/s
True Right ascension
21h 23m 27s
True Declination
0° 00' 00"
Sunlit
Object was in daylight at epoch
Visualization orbit readout
Latitude
Unknown
Longitude
Unknown
Altitude
Unknown
Speed
Unknown
Apparent Right ascension
Unknown
Apparent Declination
Unknown
Sunlit
N/A
Visualization observer readout
Local Sidereal Time
10:22:05
Azimuth
Unknown
Elevation
Unknown
Doppler factor
Unknown
Orbital elements
Apogee altitude
904.871 km
Perigee altitude
794.871 km
Semi-major axis
7,228.008 km
Eccentricity
0.00761
Inclination
98.7183°
RAAN
320.8657°
Arg. of periapsis
89.7149°
True anomaly
270.4023°
Mean anomaly
271.2742°
Eccentric anomaly
270.83827°
Mean motion
3.53196 °/min
Orbital period
101.93 mins
BSTAR
0.0012203
Loading maneuver chart data...
Computing Atmospheric mass density...

Documentation

Showing up to 5 results
|